Location: Unspecified
(50.1700°N, 6.8600°E)
Time: 00:11:39
(UTC+00:00)

Cosmos 1238 Rocket - Pass Details

Date: 24 January 2019
Orbit: 376 x 1037 km, 82.9° (Epoch: 19 February)

Event Time Altitude Azimuth Distance (km) Brightness Sun altitude
Exits shadow 05:50:21 23° 293° (WNW) 1,164 3.9 -13.8°
Maximum altitude 05:51:21 26° 268° (W) 1,110 3.8 -13.6°
Drops below altitude 10° 05:54:57 10° 212° (SSW) 1,988 5.5 -13.1°
Sets 05:57:40 0° 200° (SSW) 3,023 6.5 -12.6°
